Location: ???????
(55.4362°N, 38.1183°E)
Time: 11:58:04
(UTC+00:00)

deb Delta 139 - Pass Details

Date: 06 February 2022
Orbit: 790 x 1093 km, 98.7° (Epoch: 23 May)

Event Time Altitude Azimuth Distance (km) Brightness Sun altitude
Rises 15:49:11 0° 204° (SSW) 3,418 ? -13.8°
Reaches altitude 10° 15:51:54 10° 217° (SW) 2,531 ? -14.1°
Maximum altitude 15:56:31 25° 272° (W) 1,756 ? -14.8°
Drops below altitude 10° 16:01:26 10° 327° (NNW) 2,713 ? -15.5°
Sets 16:04:29 0° 340° (NNW) 3,718 ? -15.9°
